Weather reports worldwide

Advertisment
Verona/Villafranca, Italy (16090): temperature & dewpoint: 25.09.2020 00:00:00 - 01.10.2020 00:00:00 (CEST)Verona/Villafranca, Italy (16090): wind speed: 25.09.2020 00:00:00 - 01.10.2020 00:00:00 (CEST)Verona/Villafranca, Italy (16090): wind direction: 25.09.2020 00:00:00 - 01.10.2020 00:00:00 (CEST)Verona/Villafranca, Italy (16090): reduced air pressure: 25.09.2020 00:00:00 - 01.10.2020 00:00:00 (CEST)Verona/Villafranca, Italy (16090): visibility: 25.09.2020 00:00:00 - 01.10.2020 00:00:00 (CEST)Verona/Villafranca, Italy (16090): precipitation: 25.09.2020 00:00:00 - 01.10.2020 00:00:00 (CEST)
Date & Time tt [°C] td [°C] ff [km/h] ff [kn] dd ppp [hPa] vv [km] rr [mm]
01.10.2020 00:00:00 - - - - - - - -
30.09.2020 23:00:00 13,9 12,5 5 3 N 1012,4 10 0,0
30.09.2020 22:00:00 14,0 13,0 5 3 N - 10 -
30.09.2020 21:00:00 15,0 13,0 2 1 - - 10 -
30.09.2020 20:00:00 16,1 13,2 4 2 SSE 1012,3 10 -
30.09.2020 19:00:00 20,0 13,0 4 2 SSE - 10 -
30.09.2020 18:00:00 21,0 12,0 5 3 SW - 10 -
30.09.2020 17:00:00 21,3 12,5 9 5 SW 1012,7 10 0,0
30.09.2020 16:00:00 21,0 12,0 9 5 SW - 10 -
30.09.2020 15:00:00 21,0 13,0 5 3 SW - 10 -
30.09.2020 14:00:00 20,5 12,5 5 3 - 1014,6 10 -
30.09.2020 13:00:00 19,0 12,0 5 3 - - 10 -
30.09.2020 12:00:00 18,0 12,0 8 4 S - 10 -
30.09.2020 11:00:00 17,3 11,9 8 4 S 1016,2 10 0,0
30.09.2020 10:00:00 15,0 12,0 4 2 - - 7 -
30.09.2020 09:00:00 13,0 11,0 5 3 SSE - 6 -
30.09.2020 08:00:00 10,3 9,5 2 1 - 1016,3 5 -
30.09.2020 07:00:00 10,0 10,0 5 3 NW - 8 -
30.09.2020 06:00:00 10,0 9,0 8 4 N - 8 -
30.09.2020 05:00:00 10,1 9,4 5 3 N 1016,4 10 0,0
30.09.2020 04:00:00 10,0 10,0 5 3 N - 9 -
30.09.2020 03:00:00 10,0 10,0 2 1 - - 10 -
30.09.2020 02:00:00 10,7 9,4 2 1 - 1016,8 10 -
30.09.2020 01:00:00 13,0 11,0 5 3 N - 10 -
30.09.2020 00:00:00 12,0 11,0 8 4 N - 10 -
29.09.2020 23:00:00 13,2 10,8 8 4 N 1017,1 10 0,0
29.09.2020 22:00:00 14,0 11,0 5 3 N - 10 -
29.09.2020 21:00:00 14,0 11,0 5 3 N - 10 -
29.09.2020 20:00:00 16,0 11,4 0 0 N 1016,4 10 -
29.09.2020 19:00:00 19,0 10,0 4 2 - - 10 -
29.09.2020 18:00:00 20,0 10,0 8 4 W - 10 -
29.09.2020 17:00:00 20,7 10,3 8 4 WNW 1015,8 10 0,0
29.09.2020 16:00:00 21,0 11,0 5 3 SW - 10 -
29.09.2020 15:00:00 21,0 10,0 5 3 WSW - 10 -
29.09.2020 14:00:00 20,1 9,1 9 5 WSW 1016,9 10 -
29.09.2020 13:00:00 19,0 10,0 4 2 - - 10 -
29.09.2020 12:00:00 17,0 10,0 4 2 - - 10 -
29.09.2020 11:00:00 15,9 9,2 5 3 SW 1017,3 10 0,0
29.09.2020 10:00:00 15,0 10,0 4 2 - - 10 -
29.09.2020 09:00:00 12,0 10,0 4 2 - - 10 -
29.09.2020 08:00:00 8,7 7,8 8 4 NNW 1015,6 10 -
29.09.2020 07:00:00 8,0 7,0 5 3 NNW - 10 -
29.09.2020 06:00:00 8,0 7,0 4 2 NNW - 10 -
29.09.2020 05:00:00 8,0 7,2 4 2 N 1014,4 10 0,0
29.09.2020 04:00:00 8,0 8,0 2 1 - - 10 -
29.09.2020 03:00:00 9,0 8,0 2 1 - - 10 -
29.09.2020 02:00:00 10,1 8,4 5 3 NNW 1013,7 10 -
29.09.2020 01:00:00 10,0 9,0 5 3 NNW - 10 -
29.09.2020 00:00:00 11,0 9,0 2 1 - - 10 -
28.09.2020 23:00:00 13,1 9,9 2 1 ENE 1012,8 10 0,0
28.09.2020 22:00:00 15,0 9,0 5 3 E - 10 -
28.09.2020 21:00:00 15,0 9,0 13 7 E - 10 -
28.09.2020 20:00:00 16,1 9,6 11 6 ENE 1010,7 10 -
28.09.2020 19:00:00 18,0 9,0 8 4 ENE - 10 -
28.09.2020 18:00:00 19,0 9,0 5 3 N - 10 -
28.09.2020 17:00:00 20,0 5,8 4 2 - 1008,5 10 0,0
28.09.2020 16:00:00 19,0 5,0 4 2 - - 10 -
28.09.2020 15:00:00 18,0 7,0 8 4 SW - 10 -
28.09.2020 14:00:00 18,1 8,0 8 4 SSW 1007,8 10 -
28.09.2020 13:00:00 17,0 8,0 8 4 SSW - 10 -
28.09.2020 12:00:00 15,0 9,0 4 2 - - 10 -
28.09.2020 11:00:00 14,4 8,1 8 4 SW 1006,3 10 0,0
28.09.2020 10:00:00 13,0 8,0 11 6 WSW - 10 -
28.09.2020 09:00:00 12,0 8,0 11 6 WSW - 10 -
28.09.2020 08:00:00 11,7 7,0 5 3 - 1004,1 10 -
28.09.2020 07:00:00 11,0 7,0 13 7 WSW - 10 -
28.09.2020 06:00:00 11,0 7,0 8 4 W - 10 -
28.09.2020 05:00:00 11,8 6,9 9 5 SW 1003,2 10 0,0
28.09.2020 04:00:00 12,0 7,0 15 8 WSW - 10 -
28.09.2020 03:00:00 13,0 8,0 11 6 WSW - 10 -
28.09.2020 02:00:00 11,7 7,8 5 3 SSW 1004,4 10 -
28.09.2020 01:00:00 11,0 8,0 5 3 S - 10 -
28.09.2020 00:00:00 12,0 7,0 9 5 W - 10 -
27.09.2020 23:00:00 12,1 7,8 5 3 NW 1005,4 10 0,0
27.09.2020 22:00:00 12,0 7,0 2 1 - - 10 -
27.09.2020 21:00:00 13,0 7,0 5 3 NNE - 10 -
27.09.2020 20:00:00 14,1 7,1 8 4 NE 1005,7 10 -
27.09.2020 19:00:00 15,0 7,0 15 8 ENE - 10 -
27.09.2020 18:00:00 16,0 7,0 22 12 ENE - 10 -
27.09.2020 17:00:00 15,2 6,4 21 11 NE 1005,3 10 0,0
27.09.2020 16:00:00 15,0 9,0 22 12 ENE - 10 -
27.09.2020 15:00:00 17,0 9,0 24 13 ENE - 10 -
27.09.2020 14:00:00 15,7 8,7 21 11 E 1005,6 10 -
27.09.2020 13:00:00 18,0 8,0 16 9 ENE - 10 -
27.09.2020 12:00:00 18,0 7,0 16 9 ENE - 10 -
27.09.2020 11:00:00 16,4 6,5 9 5 - 1005,9 10 0,0
27.09.2020 10:00:00 13,0 8,0 8 4 SW - 10 -
27.09.2020 09:00:00 13,0 8,0 5 3 SW - 10 -
27.09.2020 08:00:00 12,1 8,0 11 6 ENE 1003,9 10 -
27.09.2020 07:00:00 13,0 8,0 11 6 ENE - 10 -
27.09.2020 06:00:00 10,0 8,0 5 3 ENE - 10 -
27.09.2020 05:00:00 10,8 7,2 2 1 - 1002,7 10 0,0
27.09.2020 04:00:00 11,0 8,0 11 6 N - 10 -
27.09.2020 03:00:00 10,0 6,0 5 3 NNW - 10 -
27.09.2020 02:00:00 9,3 6,5 5 3 NW 1001,8 10 -
27.09.2020 01:00:00 11,0 7,0 4 2 NNW - 10 -
27.09.2020 00:00:00 11,0 8,0 5 3 NW - 10 -
26.09.2020 23:00:00 14,2 6,1 2 1 - 999,9 10 0,0
26.09.2020 22:00:00 15,0 6,0 11 6 E - 10 -
26.09.2020 21:00:00 16,0 3,0 9 5 NE - 10 -
26.09.2020 20:00:00 15,6 3,7 15 8 N 998,8 10 -
26.09.2020 19:00:00 17,0 4,0 15 8 SSW - 10 -
26.09.2020 18:00:00 20,0 3,0 9 5 SW - 10 -
26.09.2020 17:00:00 21,5 0,3 8 4 W 997,2 10 0,0
26.09.2020 16:00:00 21,0 1,0 11 6 SW - 10 -
26.09.2020 15:00:00 21,0 4,0 8 4 WSW - 10 -
26.09.2020 14:00:00 19,8 4,2 11 6 W 997,3 10 -
26.09.2020 13:00:00 19,0 5,0 11 6 WSW - 10 -
26.09.2020 12:00:00 17,0 7,0 15 8 WSW - 10 -
26.09.2020 11:00:00 16,4 7,9 13 7 WSW 996,8 10 0,0
26.09.2020 10:00:00 14,0 7,0 5 3 NW - 10 -
26.09.2020 09:00:00 12,0 9,0 2 1 - - 10 -
26.09.2020 08:00:00 10,7 7,8 5 3 NE 996,0 10 -
26.09.2020 07:00:00 11,0 8,0 8 4 NE - 10 -
26.09.2020 06:00:00 13,0 7,0 11 6 NE - 10 -
26.09.2020 05:00:00 13,3 3,5 8 4 WNW 994,6 10 0,0
26.09.2020 04:00:00 13,0 7,0 9 5 W - 10 -
26.09.2020 03:00:00 14,0 3,0 15 8 W - 10 -
26.09.2020 02:00:00 14,5 2,5 21 11 W 993,3 10 -
26.09.2020 01:00:00 15,0 2,0 18 10 W - 10 -
26.09.2020 00:00:00 15,0 3,0 24 13 W - 10 -
25.09.2020 23:00:00 14,9 2,4 28 15 WNW 992,8 10 0,0
25.09.2020 22:00:00 15,0 2,0 29 16 NW - 10 -
25.09.2020 21:00:00 15,0 4,0 29 16 NW - 10 -
25.09.2020 20:00:00 13,7 9,7 15 8 SW 992,4 10 -
25.09.2020 19:00:00 16,0 11,0 21 11 SSW - 10 -
25.09.2020 18:00:00 18,0 10,0 16 9 WSW - 10 -
25.09.2020 17:00:00 18,9 8,7 24 13 WSW 993,1 10 0,0
25.09.2020 16:00:00 22,0 11,0 29 16 SW - 10 -
25.09.2020 15:00:00 23,0 11,0 22 12 S - 10 -
25.09.2020 14:00:00 25,0 12,7 8 4 W 992,5 10 -
25.09.2020 13:00:00 22,0 17,0 16 9 E - 10 -
25.09.2020 12:00:00 22,0 18,0 16 9 E - 10 -
25.09.2020 11:00:00 20,8 17,8 11 6 E 996,4 10 0,0
25.09.2020 10:00:00 19,0 18,0 11 6 E - 10 -
25.09.2020 09:00:00 19,0 17,0 9 5 E - 10 -
25.09.2020 08:00:00 17,7 17,0 8 4 ENE 998,0 10 -
25.09.2020 07:00:00 18,0 17,0 9 5 ENE - 10 -
25.09.2020 06:00:00 18,0 17,0 5 3 NE - 10 -
25.09.2020 05:00:00 18,1 16,9 11 6 NE 999,7 10 0,0
25.09.2020 04:00:00 18,0 17,0 11 6 NE - 10 -
25.09.2020 03:00:00 18,0 17,0 11 6 NE - 10 -
25.09.2020 02:00:00 17,5 16,7 9 5 ENE 1002,6 10 -
25.09.2020 01:00:00 18,0 17,0 9 5 E - 5 -
25.09.2020 00:00:00 18,0 17,0 9 5 ENE - 4,1 -

tt = temperature
td = dewpoint
ff = wind speed
dd = wind direction
ppp = reduced air pressure
vv = visibility
rr = precipitation

Next stations